Location: *
(42.3442°N, 9.2072°E)
Time: 15:35:48
(UTC+00:00)

IGS 5A - Pass Details

Date: 09 April 2020
Orbit: 585 x 587 km, 97.6° (Epoch: 19 May)

Event Time Altitude Azimuth Distance (km) Brightness Sun altitude
Exits shadow 20:20:36 39° 29° (NNE) 881 4.3 -24.5°
Drops below altitude 10° 20:23:35 10° 358° (N) 1,918 6.6 -24.9°
Sets 20:25:47 0° 354° (N) 2,823 7.6 -25.3°
